SCP
0 0 0 0 0 0 0 0 0 0 0 0 0 0 0 0 0 1 1 1 1 1 1 1 1 1 1 1 1 1 1 1 1 1 1 0 0 0 1 1 1 1 1
1 1 1 0 0 0 0 0 0 0 0 0 0 0 0 0 0 1 1 1 1 1 1 1 1 1 1 1 1 1 1 1 1 1 0 0 0 0 0 1 1 1 1
1 1 1 0 0 0 0 0 0 0 0 0 0 0 0 0 0 1 1 1 1 1 1 1 1 1 1 1 1 1 1 0 0 0 0 0 0 0 0 1 1 1 1
1 1 1 0 0 0 0 0 0 0 0 0 0 0 0 0 0 0 0 0 1 1 1 1 1 1 1 1 1 0 0 0 0 0 0 0 0 0 0 0 1 1 1
1 1 1 0 0 0 0 0 0 0 0 0 0 0 0 1 0 0 0 0 0 0 0 0 0 1 1 1 1 0 0 0 0 0 0 0 0 0 0 0 0 1 1
0 0 0 0 0 0 0 0 0 0 0 0 1 1 1 1 1 0 0 0 0 0 0 0 0 1 1 1 1 0 0 0 0 0 0 0 0 0 0 0 0 1 1
0 0 0 0 0 0 0 0 0 1 1 1 1 1 1 0 0 0 0 0 0 0 0 0 1 1 1 1 1 0 0 0 0 0 0 0 0 0 0 0 0 1 1
0 0 0 0 0 0 0 0 1 1 1 1 1 1 1 0 0 0 0 0 0 0 0 0 1 1 1 1 0 1 0 0 0 0 0 0 0 0 0 1 1 1 1
0 0 0 0 0 0 0 0 1 1 1 1 1 1 1 1 0 0 0 0 0 0 0 0 1 1 1 0 0 0 0 0 0 0 0 0 0 0 1 1 1 1 1
0 0 0 0 0 0 0 0 1 1 1 1 1 1 1 1 1 0 0 0 0 0 0 0 0 0 0 0 0 0 0 0 0 0 0 0 1 1 1 1 1 1 1
1 0 0 0 0 0 0 0 0 1 1 1 1 1 1 1 1 0 0 0 0 0 0 0 0 0 0 0 0 0 0 0 0 0 0 0 0 0 1 1 1 1 1
1 1 1 1 0 0 0 0 0 0 0 0 0 0 1 1 1 0 0 0 0 0 0 0 0 1 1 1 0 0 0 0 0 0 0 0 0 0 1 1 1 1 1
1 1 1 1 1 1 1 1 1 0 0 0 0 0 0 0 0 0 0 0 0 0 0 0 0 1 1 1 0 0 0 0 0 0 0 0 0 1 1 1 1 1 1
1 1 1 1 1 1 1 1 1 0 0 0 0 0 0 0 0 0 0 0 0 0 0 0 0 1 1 1 0 0 0 0 0 0 0 0 0 1 1 1 1 1 1
1 1 1 1 1 1 1 1 1 0 0 0 0 0 0 0 0 0 0 0 0 0 0 0 0 1 1 1 0 0 0 0 0 0 0 0 0 0 1 1 1 1 1
1 0 0 0 0 0 0 1 0 0 0 1 1 0 0 0 0 0 0 0 0 0 0 0 0 1 1 1 0 0 0 0 0 0 0 0 0 0 0 0 0 0 0
1 0 0 0 0 0 0 0 0 0 0 1 1 0 0 0 0 0 0 0 0 0 0 0 0 1 1 1 0 0 0 0 0 0 0 0 0 0 0 0 0 0 0
1 0 0 0 0 0 0 0 0 0 0 0 0 0 0 0 0 0 0 0 0 0 0 0 0 1 1 1 0 0 0 0 0 0 0 0 0 0 0 0 0 0 0
1 1 0 0 0 0 0 0 0 0 0 0 0 0 0 0 0 0 0 0 0 0 0 0 0 0 0 0 0 0 0 0 0 0 0 0 0 0 0 0 0 0 0
1 1 0 0 0 0 0 0 0 0 0 0 0 0 0 0 0 0 0 0 0 0 0 0 0 0 0 0 0 0 0 0 1 1 1 0 0 0 0 0 0 0 0
1 1 1 0 0 0 0 0 0 0 0 0 0 0 0 0 0 0 0 0 0 0 0 0 0 0 0 0 0 0 0 1 1 1 1 1 1 1 0 0 0 0 0
1 1 1 1 1 0 0 0 0 0 0 0 0 0 0 0 0 0 0 0 0 0 0 0 0 0 0 0 0 0 1 1 1 1 1 1 1 1 1 0 0 0 0
1 1 1 1 1 0 0 0 0 0 0 0 0 0 0 0 0 0 0 0 0 0 0 0 0 0 0 1 0 0 0 1 1 0 0 0 0 0 1 0 0 0 0
1 1 1 1 1 0 0 0 0 0 0 0 0 0 0 0 0 0 0 0 0 0 0 0 0 0 0 0 0 0 0 0 0 0 0 0 0 0 0 0 0 0 0
2 2 1 1 1 1 0 0 0 0 0 0 0 0 0 0 0 0 0 0 0 0 0 0 0 0 0 0 0 0 0 0 0 0 0 0 0 0 0 0 0 0 0
2 2 2 1 1 1 0 0 0 0 0 0 0 0 0 0 0 0 0 1 0 0 0 0 0 0 0 0 0 0 0 0 0 0 0 0 0 0 0 0 0 0 0
Wind_Speed
4 4 4 4 4 4 4 4 5 6 6 6 5 6 6 6 5 5 5 10 9 8 9 9 8 8 8 8 8 7 7 7 7 7 7 7 8 7 7 7 7 7 7
4 4 5 5 4 4 4 4 5 5 5 5 6 6 5 5 5 5 5 7 9 8 8 8 8 8 8 8 8 8 8 8 7 7 7 7 6 6 7 7 6 6 7
5 5 4 4 4 4 4 4 5 4 4 4 5 5 4 5 5 5 5 4 5 9 10 9 8 8 8 8 8 8 8 8 7 7 6 6 6 6 6 6 6 7 6
5 4 4 4 4 3 3 3 3 3 4 4 4 3 3 4 4 5 4 4 4 4 7 10 9 8 7 7 7 7 7 7 6 6 5 5 5 5 5 5 6 6 6
4 4 3 3 3 3 3 3 3 3 4 3 3 3 3 3 3 3 4 5 5 4 4 7 8 8 7 6 6 6 6 6 5 5 5 5 4 4 5 5 5 5 5
4 4 3 3 3 2 2 2 3 3 3 2 3 3 3 3 3 3 4 4 4 4 4 4 3 5 7 6 5 5 5 5 4 4 4 4 3 4 4 5 5 5 5
3 3 2 3 2 2 2 2 2 3 2 1 1 2 3 3 3 3 3 3 3 3 3 3 2 2 3 5 5 5 5 4 3 3 3 3 3 4 4 4 4 5 5
2 2 2 2 2 2 2 2 1 1 1 1 1 0 2 3 3 2 2 2 2 2 2 3 3 3 2 2 5 6 5 4 3 2 2 2 3 3 4 4 4 4 4
2 2 2 2 2 1 1 1 1 0 0 0 1 2 1 1 2 2 2 2 2 1 2 2 2 2 2 2 2 4 5 4 3 2 1 1 3 3 4 4 3 3 3
1 1 1 1 1 1 1 0 0 0 1 0 1 1 2 2 1 1 2 1 1 1 1 1 1 1 2 2 3 5 5 4 3 2 1 1 2 3 3 3 3 3 4
1 1 0 0 0 0 0 0 0 1 1 1 1 1 1 1 2 1 1 1 1 1 1 1 1 1 2 2 2 5 6 5 4 3 2 2 2 3 3 3 4 4 4
1 1 0 0 0 0 0 0 0 0 1 1 1 1 1 1 1 1 1 1 1 1 1 1 1 1 1 1 3 6 5 5 5 4 3 3 2 1 2 3 3 4 4
1 1 1 1 1 1 1 1 1 1 1 1 2 1 2 2 1 2 2 1 0 1 1 1 1 1 0 0 1 3 4 5 4 4 4 3 3 2 1 2 3 3 3
2 2 2 2 2 1 1 1 2 2 1 1 1 1 1 2 2 2 2 2 2 1 1 1 1 1 0 0 2 2 2 3 4 3 3 3 3 3 2 2 1 2 2
2 3 3 2 2 2 2 2 2 2 2 2 1 1 2 1 2 2 2 3 3 2 1 1 1 1 0 0 1 1 0 4 3 3 2 3 3 3 3 3 2 0 1
3 3 3 3 3 3 3 2 2 2 2 2 2 2 2 2 1 2 2 3 3 3 2 1 1 1 0 0 0 1 1 3 2 2 2 2 3 2 2 2 2 2 1
4 4 4 4 3 3 3 2 3 3 3 3 2 3 3 2 2 2 2 3 3 3 2 1 1 1 1 1 1 1 0 0 1 2 2 2 2 2 1 2 2 2 2
4 4 4 4 3 3 3 3 3 3 4 3 3 3 3 2 3 3 2 3 3 3 3 2 1 1 1 1 1 1 1 1 0 3 2 2 2 1 2 2 2 2 2
3 3 3 4 3 3 4 4 4 4 4 4 4 4 3 3 3 3 3 3 3 3 3 3 2 1 1 1 1 1 1 1 1 1 2 2 1 1 2 2 2 2 2
3 3 3 3 3 4 4 4 4 4 4 4 3 4 4 3 4 3 3 3 3 3 3 2 2 2 2 1 2 2 1 1 1 0 0 0 2 2 1 1 1 1 1
3 3 3 3 3 3 3 3 4 4 4 4 3 3 2 2 3 2 2 2 2 3 3 3 2 2 2 2 2 2 2 1 1 1 1 1 1 1 1 2 1 1 1
3 3 3 3 3 2 1 1 3 3 3 3 3 3 2 3 1 1 1 2 2 3 3 3 3 3 3 2 2 2 2 2 2 1 2 1 1 1 1 0 2 2 2
4 3 3 3 3 2 2 1 3 3 3 3 3 3 2 2 3 3 3 3 1 1 3 4 4 4 3 2 3 3 3 3 2 1 2 2 2 2 2 1 3 3 2
4 4 3 3 3 2 3 2 3 4 3 3 3 3 3 3 3 3 3 3 3 2 3 4 4 3 3 2 3 3 3 3 2 1 2 3 3 3 2 1 3 3 3
4 4 4 4 4 3 3 3 4 4 3 3 3 3 3 4 1 3 4 4 3 2 1 1 2 2 2 1 2 3 3 3 3 2 2 3 3 3 3 3 3 4 4
4 3 3 4 4 4 3 4 5 3 3 3 2 3 2 3 1 3 4 4 3 2 2 2 3 3 3 3 4 5 4 4 3 2 2 3 3 2 3 2 2 2 3
Wind_Direction
64 61 63 60 59 62 66 65 62 65 69 65 64 67 70 70 70 71 76 71 67 72 83 89 88 88 87 87 84 81 78 77 77 78 74 70 70 71 72 75 77 77 79
68 68 66 59 55 56 60 69 70 67 70 72 69 68 67 69 68 71 75 82 71 63 71 77 83 85 85 85 82 78 74 74 75 78 78 77 76 75 74 75 75 78 80
70 70 69 66 60 58 59 62 70 71 75 79 77 66 63 59 61 63 66 67 76 71 63 64 75 80 82 82 80 78 75 74 72 74 77 81 80 77 73 75 77 76 76
74 75 74 72 68 63 61 59 59 68 72 71 73 70 70 72 66 63 68 70 64 68 73 65 61 66 74 76 77 79 80 80 81 81 79 82 82 78 75 76 81 77 76
70 76 70 68 71 66 62 67 62 60 69 66 71 74 67 69 72 72 74 72 73 73 75 78 67 57 58 64 71 75 78 80 85 85 81 81 87 86 81 78 83 81 78
68 75 79 76 77 82 78 84 85 73 66 65 67 69 71 80 77 68 64 66 64 66 65 67 82 82 66 55 60 68 68 71 80 90 90 91 96 98 92 86 86 85 79
73 76 75 77 74 81 86 90 84 93 82 74 98 99 98 87 80 77 67 65 69 63 65 56 45 53 90 79 58 53 54 53 64 90 105 104 109 106 104 100 91 84 80
78 75 76 86 91 91 98 90 88 78 86 24 352 278 146 139 110 96 88 77 72 75 61 53 47 39 35 53 68 45 31 32 44 80 112 114 119 119 119 116 108 96 87
79 73 67 78 84 92 93 108 134 110 72 87 4 336 334 57 117 115 93 100 80 72 69 49 36 32 41 40 57 62 28 22 27 60 98 127 141 135 133 128 123 113 104
98 79 75 67 95 77 91 143 139 263 305 323 62 344 348 7 304 144 134 101 78 68 68 88 49 31 33 42 55 45 30 22 25 54 71 109 159 156 152 149 144 131 122
130 116 80 30 90 119 86 41 351 288 282 315 328 332 356 309 292 293 156 146 138 105 73 56 63 41 36 40 40 44 33 26 31 48 58 72 116 153 163 159 157 151 142
180 171 178 255 279 268 234 192 200 285 310 315 299 295 292 288 295 301 268 218 141 117 136 106 89 73 48 43 48 42 38 32 34 37 44 51 63 105 154 163 159 158 157
200 214 202 217 235 261 262 245 239 265 254 272 281 303 309 299 309 297 285 271 231 163 146 156 123 101 79 7 81 48 56 35 33 36 40 40 42 50 82 163 171 170 174
223 224 214 217 223 231 233 223 258 265 271 251 268 274 282 290 282 280 288 284 262 207 184 148 130 118 76 346 46 296 88 51 34 36 40 34 38 49 58 68 147 177 188
231 231 218 219 221 219 231 219 237 244 258 276 277 263 268 279 276 282 275 277 280 269 228 158 149 144 160 47 55 260 124 78 50 38 48 48 44 51 53 53 56 85 185
227 222 220 216 216 211 216 222 245 262 246 238 270 276 271 263 257 261 262 264 275 284 279 184 178 161 152 221 293 280 54 92 68 49 52 64 56 50 49 49 51 54 68
224 221 218 220 220 219 215 207 235 242 247 239 228 249 258 263 248 239 248 248 255 264 263 238 170 172 195 233 186 262 226 221 112 84 59 66 64 53 69 76 66 66 71
223 228 221 225 229 233 232 223 224 236 245 246 244 246 255 246 249 259 254 251 247 251 251 245 207 211 239 248 227 248 276 310 310 98 88 77 71 70 78 87 84 74 81
223 222 226 226 228 235 238 239 234 237 243 247 248 249 255 253 248 247 250 255 251 241 245 242 227 209 246 238 223 237 256 275 268 136 144 144 127 100 78 78 82 81 85
221 225 227 229 235 238 235 239 244 245 243 244 248 252 259 258 261 261 247 248 247 234 224 231 227 216 223 227 232 229 231 238 283 271 9 189 155 153 128 98 92 95 106
227 226 231 229 231 238 242 244 247 247 244 239 238 243 265 307 326 308 278 252 234 233 224 220 220 225 217 209 232 232 236 230 255 300 273 243 201 208 187 181 188 150 127
225 225 226 223 221 217 112 263 268 244 236 236 234 235 231 222 211 194 338 340 305 256 248 236 230 230 239 234 231 233 233 237 231 234 258 267 252 244 248 245 80 116 133
219 225 225 222 223 193 148 192 264 263 246 243 243 243 240 245 237 217 195 200 220 290 293 268 254 249 248 234 222 226 232 239 245 210 248 257 249 247 237 116 105 126 134
214 217 220 221 228 205 156 187 229 243 246 249 254 252 244 241 235 247 225 216 223 226 243 251 259 265 267 245 226 234 236 239 257 202 245 263 256 248 243 208 137 147 156
218 216 219 220 222 213 174 203 237 237 238 239 243 252 251 247 208 258 246 230 223 214 164 250 306 320 351 327 242 220 216 221 235 218 218 258 269 263 251 236 180 172 176
220 220 220 225 230 233 179 204 236 235 237 239 241 234 233 256 205 234 241 236 235 239 224 217 223 226 238 199 206 228 226 233 243 233 204 240 263 266 260 239 233 206 204